Weather History for Clarinda, IA

Change the Weather History Date:

Saturday, January 12, 2013

  Actual Average Record
Temperature  
Mean Temperature 24 °F -  
Max Temperature 33 °F 32 °F 55 °F (2006)
Min Temperature 12 °F 14 °F 1 °F (2011)
Degree Days  
Heating Degree Days 42    
Moisture  
Dew Point 10 °F    
Average Humidity 61    
Maximum Humidity 81    
Minimum Humidity 46    
Precipitation  
Precipitation 0.00 in - - ()
Sea Level Pressure  
Sea Level Pressure 30.02 in    
Wind  
Wind Speed 13 mph (NW)    
Max Wind Speed 24 mph    
Max Gust Speed 30 mph    
Visibility 10 miles    
Events      
Averages and records for this station are not official NWS values.
T = Trace of Precipitation, MM = Missing Value Source: NWS Daily Summary

Daily Weather History Graph

Daily Weather History Graph

Search for Another Location

Airport:

Trip Planner

Search our weather history database for the weather conditions in past years. The results will help you decide how hot, cold, wet, or windy it might be!

Date:

Astronomy

Jan. 12, 2013 Rise Set
Actual Time 7:43 AM CST 5:14 PM CST
Civil Twilight 7:12 AM CST 5:44 PM CST
Nautical Twilight 6:38 AM CST 6:18 PM CST
Astronomical Twilight 6:05 AM CST 6:51 PM CST
Moon 8:01 AM CST (1/12) 6:45 PM CST (1/12)
Length of Visible Light 10h 32m
Length of Day
9h 31m
New Moon, 1% of the Moon is Illuminated
Jan 12
New Moon
Jan 18
First Quarter
Jan 26
Full
Feb 3
Last Quarter
Feb 10
New

Hourly Weather History & Observations

Time (CST) Temp. Windchill Dew Point Humidity Pressure Visibility Wind Dir Wind Speed Gust Speed Precip Events Conditions
12:15 AM 33.8 °F 23.5 °F 28.4 °F 81% 29.72 in 10.0 mi West 16.1 mph - N/A   Mostly Cloudy
12:35 AM 33.8 °F 23.2 °F 26.6 °F 75% 29.75 in 10.0 mi WNW 17.3 mph 29.9 mph N/A   Overcast
12:55 AM 30.2 °F 18.5 °F 24.8 °F 80% 29.77 in 10.0 mi WNW 17.3 mph 24.2 mph N/A   Overcast
1:15 AM 30.2 °F 18.1 °F 23.0 °F 75% 29.78 in 10.0 mi WNW 18.4 mph 23.0 mph N/A   Overcast
1:35 AM 30.2 °F 20.2 °F 21.2 °F 69% 29.81 in 10.0 mi WNW 12.7 mph 19.6 mph N/A   Overcast
2:15 AM 28.4 °F 14.1 °F 19.4 °F 69% 29.86 in 10.0 mi West 24.2 mph 29.9 mph N/A   Mostly Cloudy
2:35 AM 24.8 °F 10.7 °F 12.2 °F 59% 29.88 in 10.0 mi WNW 19.6 mph 25.3 mph N/A   Scattered Clouds
2:55 AM 24.8 °F 12.9 °F 14.0 °F 64% 29.90 in 10.0 mi WNW 13.8 mph 25.3 mph N/A   Clear
3:15 AM 24.8 °F 11.5 °F 12.2 °F 59% 29.92 in 10.0 mi WNW 17.3 mph 23.0 mph N/A   Clear
3:35 AM 23.0 °F 12.4 °F 12.2 °F 63% 29.92 in 10.0 mi WNW 10.4 mph 21.9 mph N/A   Clear
3:55 AM 23.0 °F 10.1 °F 10.4 °F 59% 29.93 in 10.0 mi WNW 15.0 mph 23.0 mph N/A   Clear
4:15 AM 23.0 °F 10.1 °F 10.4 °F 59% 29.94 in 10.0 mi WNW 15.0 mph 21.9 mph N/A   Clear
4:35 AM 21.2 °F 6.8 °F 10.4 °F 63% 29.95 in 10.0 mi NW 17.3 mph 24.2 mph N/A   Clear
4:55 AM 21.2 °F 10.1 °F 10.4 °F 63% 29.96 in 10.0 mi WNW 10.4 mph 18.4 mph N/A   Clear
5:15 AM 21.2 °F 12.6 °F 10.4 °F 63% 29.97 in 10.0 mi WNW 6.9 mph - N/A   Clear
5:35 AM 21.2 °F 10.9 °F 10.4 °F 63% 29.97 in 10.0 mi WNW 9.2 mph - N/A   Clear
5:55 AM 21.2 °F 14.9 °F 10.4 °F 63% 29.99 in 10.0 mi West 4.6 mph - N/A   Clear
6:15 AM 19.4 °F 11.5 °F 10.4 °F 68% 29.99 in 10.0 mi West 5.8 mph - N/A   Clear
6:35 AM 19.4 °F 12.8 °F 10.4 °F 68% 29.99 in 10.0 mi West 4.6 mph - N/A   Clear
6:55 AM 21.2 °F 8.3 °F 10.4 °F 63% 30.00 in 10.0 mi West 13.8 mph - N/A   Clear
7:15 AM 19.4 °F 6.0 °F 8.6 °F 63% 30.02 in 10.0 mi WNW 13.8 mph 17.3 mph N/A   Clear
7:35 AM 19.4 °F 9.5 °F 8.6 °F 63% 30.02 in 10.0 mi WNW 8.1 mph - N/A   Clear
7:55 AM 19.4 °F 8.6 °F 8.6 °F 63% 30.03 in 10.0 mi WNW 9.2 mph - N/A   Clear
8:15 AM 19.4 °F 7.9 °F 8.6 °F 63% 30.04 in 10.0 mi WNW 10.4 mph - N/A   Clear
8:35 AM 21.2 °F 8.9 °F 8.6 °F 58% 30.05 in 10.0 mi WNW 12.7 mph 16.1 mph N/A   Clear
8:55 AM 21.2 °F 9.5 °F 8.6 °F 58% 30.05 in 10.0 mi WNW 11.5 mph - N/A   Clear
9:15 AM 19.4 °F 10.4 °F 8.6 °F 63% 30.06 in 10.0 mi WNW 6.9 mph - N/A   Clear
9:35 AM 21.2 °F 9.5 °F 10.4 °F 63% 30.07 in 10.0 mi WNW 11.5 mph 16.1 mph N/A   Clear
9:55 AM 21.2 °F 7.3 °F 10.4 °F 63% 30.06 in 10.0 mi WNW 16.1 mph - N/A   Clear
10:15 AM 21.2 °F 8.3 °F 10.4 °F 63% 30.06 in 10.0 mi WNW 13.8 mph - N/A   Clear
10:35 AM 21.2 °F 8.3 °F 12.2 °F 68% 30.08 in 10.0 mi WNW 13.8 mph 17.3 mph N/A   Clear
10:55 AM 21.2 °F 8.9 °F 10.4 °F 63% 30.09 in 10.0 mi West 12.7 mph - N/A   Clear
11:15 AM 21.2 °F 9.5 °F 8.6 °F 58% 30.08 in 10.0 mi WNW 11.5 mph - N/A   Clear
11:55 AM 21.2 °F 8.9 °F 8.6 °F 58% 30.06 in 10.0 mi NW 12.7 mph 18.4 mph N/A   Clear
12:15 PM 21.2 °F 8.9 °F 6.8 °F 54% 30.06 in 10.0 mi WNW 12.7 mph 18.4 mph N/A   Clear
12:35 PM 21.2 °F 8.9 °F 8.6 °F 58% 30.05 in 10.0 mi NW 12.7 mph 18.4 mph N/A   Clear
12:55 PM 21.2 °F 8.3 °F 8.6 °F 58% 30.03 in 10.0 mi WNW 13.8 mph 19.6 mph N/A   Clear
1:15 PM 21.2 °F 9.5 °F 6.8 °F 54% 30.02 in 10.0 mi NW 11.5 mph 19.6 mph N/A   Scattered Clouds
1:35 PM 21.2 °F 10.1 °F 6.8 °F 54% 30.03 in 10.0 mi NW 10.4 mph - N/A   Scattered Clouds
1:55 PM 21.2 °F 11.7 °F 6.8 °F 54% 30.05 in 10.0 mi NW 8.1 mph - N/A   Mostly Cloudy
2:15 PM 21.2 °F 13.6 °F 6.8 °F 54% 30.04 in 10.0 mi NNW 5.8 mph - N/A   Scattered Clouds
2:35 PM 23.0 °F 12.4 °F 6.8 °F 50% 30.05 in 10.0 mi NW 10.4 mph - N/A   Clear
2:55 PM 23.0 °F 13.1 °F 8.6 °F 54% 30.06 in 10.0 mi NW 9.2 mph - N/A   Clear
3:15 PM 24.8 °F 15.3 °F 6.8 °F 46% 30.04 in 10.0 mi NNW 9.2 mph - N/A   Clear
3:35 PM 23.0 °F 13.9 °F 6.8 °F 50% 30.05 in 10.0 mi NNW 8.1 mph - N/A   Scattered Clouds
3:55 PM 23.0 °F 12.4 °F 6.8 °F 50% 30.04 in 10.0 mi NNW 10.4 mph - N/A   Scattered Clouds
4:15 PM 21.2 °F 10.1 °F 6.8 °F 54% 30.06 in 10.0 mi NNW 10.4 mph - N/A   Scattered Clouds
4:35 PM 21.2 °F 10.1 °F 8.6 °F 58% 30.05 in 10.0 mi North 10.4 mph - N/A   Scattered Clouds
4:55 PM 21.2 °F 12.6 °F 8.6 °F 58% 30.07 in 10.0 mi NW 6.9 mph - N/A   Mostly Cloudy
5:15 PM 21.2 °F 11.7 °F 8.6 °F 58% 30.07 in 10.0 mi NNW 8.1 mph - N/A   Mostly Cloudy
5:35 PM 21.2 °F 11.7 °F 8.6 °F 58% 30.08 in 10.0 mi NNW 8.1 mph - N/A   Mostly Cloudy
5:55 PM 21.2 °F 12.6 °F 8.6 °F 58% 30.09 in 10.0 mi NNW 6.9 mph - N/A   Overcast
6:15 PM 21.2 °F 11.7 °F 8.6 °F 58% 30.11 in 10.0 mi NNW 8.1 mph - N/A   Overcast
6:35 PM 21.2 °F 12.6 °F 8.6 °F 58% 30.10 in 10.0 mi North 6.9 mph - N/A   Scattered Clouds
6:55 PM 19.4 °F 9.5 °F 8.6 °F 63% 30.10 in 10.0 mi North 8.1 mph - N/A   Mostly Cloudy
7:15 PM 19.4 °F 8.6 °F 8.6 °F 63% 30.11 in 10.0 mi NNW 9.2 mph - N/A   Mostly Cloudy
7:35 PM 19.4 °F 7.9 °F 8.6 °F 63% 30.09 in 10.0 mi North 10.4 mph - N/A   Scattered Clouds
7:55 PM 17.6 °F 4.3 °F 6.8 °F 63% 30.09 in 10.0 mi NNW 12.7 mph - N/A   Clear
8:15 PM 17.6 °F 4.3 °F 6.8 °F 63% 30.10 in 10.0 mi NW 12.7 mph - N/A   Scattered Clouds
8:35 PM 17.6 °F 3.7 °F 6.8 °F 63% 30.09 in 10.0 mi NNW 13.8 mph - N/A   Clear
8:55 PM 17.6 °F 5.0 °F 6.8 °F 63% 30.10 in 10.0 mi NNW 11.5 mph - N/A   Clear
9:15 PM 17.6 °F 3.7 °F 6.8 °F 63% 30.09 in 10.0 mi NNW 13.8 mph - N/A   Clear
9:35 PM 17.6 °F 6.4 °F 6.8 °F 63% 30.10 in 10.0 mi NW 9.2 mph - N/A   Clear
9:55 PM 15.8 °F 3.4 °F 6.8 °F 68% 30.10 in 10.0 mi NW 10.4 mph 16.1 mph N/A   Clear
10:15 PM 15.8 °F 2.1 °F 5.0 °F 62% 30.09 in 10.0 mi NNW 12.7 mph 17.3 mph N/A   Clear
10:35 PM 15.8 °F 2.7 °F 3.2 °F 58% 30.10 in 10.0 mi NNW 11.5 mph 18.4 mph N/A   Clear
10:55 PM 14.0 °F -0.2 °F 1.4 °F 57% 30.10 in 10.0 mi NNW 12.7 mph - N/A   Clear
11:15 PM 14.0 °F 0.5 °F 3.2 °F 62% 30.08 in 10.0 mi NNW 11.5 mph - N/A   Clear
11:35 PM 14.0 °F 1.2 °F 1.4 °F 57% 30.09 in 10.0 mi NNW 10.4 mph - N/A   Clear
11:55 PM 12.2 °F -3.7 °F 1.4 °F 62% 30.10 in 10.0 mi NNW 15.0 mph - N/A   Clear